Indiana, PA

5:19 AM EDT on March 23, 2017 (GMT -0400)
Indiana County-Stewart

Weather History for KIDI - February, 2013

Change the Weather History Date:

Saturday, February 2, 2013

  Actual Average Record
Temperature  
Mean Temperature 14 °F -  
Max Temperature 21 °F 40 °F 56 °F (1967)
Min Temperature 8 °F 21 °F -26 °F (1961)
Degree Days  
Heating Degree Days 50    
Moisture  
Dew Point 14 °F    
Average Humidity 93    
Maximum Humidity 100    
Minimum Humidity 79    
Precipitation  
Precipitation 0.00 in - - ()
Sea Level Pressure  
Sea Level Pressure 30.06 in    
Wind  
Wind Speed 7 mph (WSW)    
Max Wind Speed 15 mph    
Max Gust Speed 20 mph    
Visibility 6 miles    
Events      
Averages and records for this station are not official NWS values.
T = Trace of Precipitation, MM = Missing Value Source: NWS Daily Summary

Daily Weather History Graph

Daily Weather History Graph

Search for Another Location

Airport or City:

Trip Planner

Search our weather history database for the weather conditions in past years. The results will help you decide how hot, cold, wet, or windy it might be!

Date:

Astronomy

Feb. 02, 2013 Rise Set
Actual Time 7:25 AM EST 5:35 PM EST
Civil Twilight 6:56 AM EST 6:04 PM EST
Nautical Twilight 6:23 AM EST 6:37 PM EST
Astronomical Twilight 5:51 AM EST 7:09 PM EST
Moon No Moon Rise 10:32 AM EST (2/2)
Length of Visible Light 11h 08m
Length of Day
10h 10m
Waning Gibbous, 60% of the Moon is Illuminated
Feb 2
Waning Gibbous
Feb 3
Last Quarter
Feb 10
New
Feb 17
First Quarter
Feb 25
Full

Hourly Weather History & Observations

Time (EST) Temp. Windchill Dew Point Humidity Pressure Visibility Wind Dir Wind Speed Gust Speed Precip Events Conditions
12:15 AM 8.6 °F -5.5 °F 3.2 °F 79% 30.25 in 10.0 mi West 10.4 mph - N/A   Unknown
12:35 AM 8.6 °F -4.7 °F 5.0 °F 85% 30.24 in 10.0 mi West 9.2 mph - N/A   Unknown
12:55 AM 8.6 °F -4.7 °F 5.0 °F 85% 30.24 in 10.0 mi WSW 9.2 mph - N/A   Unknown
1:15 AM 8.6 °F -3.7 °F 5.0 °F 85% 30.23 in 10.0 mi WSW 8.1 mph - N/A   Unknown
1:35 AM 8.6 °F -2.6 °F 5.0 °F 85% 30.23 in 10.0 mi WSW 6.9 mph - N/A   Unknown
1:55 AM 8.6 °F -2.6 °F 6.8 °F 92% - 10.0 mi WSW 6.9 mph - N/A   Unknown
2:15 AM 8.6 °F -5.5 °F 6.8 °F 92% 30.23 in 10.0 mi West 10.4 mph - N/A   Unknown
2:35 AM 8.6 °F -3.7 °F 6.8 °F 92% 30.23 in 10.0 mi WSW 8.1 mph - N/A   Unknown
2:55 AM 8.6 °F -1.3 °F 6.8 °F 92% 30.22 in 10.0 mi WSW 5.8 mph - N/A   Unknown
3:15 AM 8.6 °F -1.3 °F 6.8 °F 92% 30.22 in 10.0 mi WSW 5.8 mph - N/A   Unknown
3:35 AM 8.6 °F - 6.8 °F 92% 30.21 in 10.0 mi Calm Calm - N/A   Unknown
4:15 AM 10.4 °F 0.8 °F 6.8 °F 85% 30.20 in 10.0 mi WSW 5.8 mph - N/A   Unknown
4:35 AM 10.4 °F -0.4 °F 6.8 °F 85% 30.21 in 10.0 mi WSW 6.9 mph - N/A   Unknown
4:55 AM 10.4 °F 2.2 °F 6.8 °F 85% 30.20 in 10.0 mi WSW 4.6 mph - N/A   Unknown
5:15 AM 10.4 °F -1.5 °F 6.8 °F 85% 30.20 in 10.0 mi WSW 8.1 mph - N/A   Unknown
5:35 AM 10.4 °F -0.4 °F 6.8 °F 85% 30.20 in 10.0 mi WSW 6.9 mph - N/A   Unknown
5:55 AM 8.6 °F -2.6 °F 6.8 °F 92% 30.19 in 10.0 mi WSW 6.9 mph - N/A   Unknown
6:15 AM 8.6 °F -3.7 °F 6.8 °F 92% 30.19 in 10.0 mi WSW 8.1 mph - N/A   Unknown
6:35 AM 8.6 °F -4.7 °F 6.8 °F 92% 30.18 in 10.0 mi WSW 9.2 mph - N/A   Unknown
7:15 AM 8.6 °F -3.7 °F 6.8 °F 92% 30.18 in 10.0 mi WSW 8.1 mph - N/A   Unknown
7:35 AM 8.6 °F -2.6 °F 6.8 °F 92% 30.18 in 10.0 mi WSW 6.9 mph - N/A   Unknown
7:55 AM 10.4 °F -0.4 °F 6.8 °F 85% 30.18 in 10.0 mi WSW 6.9 mph - N/A   Unknown
8:15 AM 10.4 °F -0.4 °F 6.8 °F 85% 30.17 in 10.0 mi WSW 6.9 mph - N/A   Unknown
8:35 AM 10.4 °F -4.1 °F 6.8 °F 85% 30.16 in 10.0 mi WSW 11.5 mph - N/A   Unknown
8:55 AM 12.2 °F -3.7 °F 8.6 °F 85% 30.16 in 10.0 mi WSW 15.0 mph - N/A   Unknown
9:15 AM 12.2 °F -3.7 °F 8.6 °F 85% 30.15 in 10.0 mi SW 15.0 mph - N/A   Unknown
9:35 AM 12.2 °F -0.2 °F 8.6 °F 85% 30.14 in 7.0 mi WSW 9.2 mph 19.6 mph N/A   Unknown
9:55 AM 14.0 °F 0.5 °F 10.4 °F 86% 30.14 in 7.0 mi SW 11.5 mph 16.1 mph N/A   Unknown
10:15 AM 14.0 °F 3.9 °F 10.4 °F 86% 30.13 in 7.0 mi SW 6.9 mph 16.1 mph N/A   Unknown
10:35 AM 15.8 °F 2.7 °F 10.4 °F 79% 30.12 in 2.5 mi SW 11.5 mph 18.4 mph N/A   Unknown
10:55 AM 15.8 °F 2.7 °F 12.2 °F 86% 30.11 in 1.8 mi SW 11.5 mph - N/A   Unknown
11:15 AM 15.8 °F 1.4 °F 14.0 °F 93% 30.10 in 1.5 mi WSW 13.8 mph - N/A   Unknown
11:35 AM 15.8 °F 4.2 °F 14.0 °F 93% 30.09 in 1.2 mi WSW 9.2 mph 18.4 mph N/A   Unknown
11:55 AM 15.8 °F 5.1 °F 15.8 °F 100% 30.07 in 1.2 mi SW 8.1 mph - N/A   Unknown
12:15 PM 17.6 °F 6.4 °F 15.8 °F 93% 30.05 in 1.8 mi SW 9.2 mph - N/A   Unknown
12:35 PM 17.6 °F 8.2 °F 15.8 °F 93% 30.04 in 1.2 mi SW 6.9 mph - N/A   Unknown
12:55 PM 17.6 °F 6.4 °F 15.8 °F 93% 30.02 in 1.2 mi SW 9.2 mph - N/A   Unknown
1:15 PM 17.6 °F 5.7 °F 17.6 °F 100% 30.01 in 1.2 mi SW 10.4 mph - N/A   Unknown
1:35 PM 19.4 °F 8.6 °F 17.6 °F 93% 29.99 in 1.8 mi WSW 9.2 mph - N/A   Unknown
1:55 PM 19.4 °F 11.5 °F 17.6 °F 93% 29.98 in 2.5 mi WSW 5.8 mph - N/A   Unknown
2:15 PM 19.4 °F 9.5 °F 17.6 °F 93% 29.97 in 2.5 mi WSW 8.1 mph - N/A   Unknown
2:35 PM 21.2 °F 10.1 °F 17.6 °F 86% 29.96 in 2.5 mi SW 10.4 mph - N/A   Unknown
2:55 PM 21.2 °F 13.6 °F 19.4 °F 93% 29.95 in 1.2 mi WSW 5.8 mph - N/A   Unknown
3:15 PM 21.2 °F 12.6 °F 19.4 °F 93% 29.95 in 2.0 mi SW 6.9 mph - N/A   Unknown
3:35 PM 21.2 °F 13.6 °F 19.4 °F 93% 29.95 in 1.8 mi SW 5.8 mph - N/A   Unknown
3:55 PM 21.2 °F 11.7 °F 19.4 °F 93% 29.94 in 1.5 mi SW 8.1 mph - N/A   Unknown
4:15 PM 21.2 °F 13.6 °F 21.2 °F 100% 29.93 in 1.8 mi SW 5.8 mph - N/A   Unknown
4:35 PM 21.2 °F 12.6 °F 21.2 °F 100% 29.94 in 1.5 mi WSW 6.9 mph - N/A   Unknown
4:55 PM 21.2 °F 16.4 °F 21.2 °F 100% 29.94 in 0.8 mi WSW 3.5 mph - N/A   Unknown
5:15 PM 21.2 °F 14.9 °F 21.2 °F 100% 29.94 in 1.8 mi WSW 4.6 mph - N/A   Unknown
5:35 PM 21.2 °F - 21.2 °F 100% 29.94 in 1.8 mi Calm Calm - N/A   Unknown
5:55 PM 21.2 °F - 21.2 °F 100% 29.94 in 2.5 mi Calm Calm - N/A   Unknown
6:15 PM 21.2 °F 14.9 °F 21.2 °F 100% 29.94 in 2.5 mi WSW 4.6 mph - N/A   Unknown
6:35 PM 21.2 °F - 21.2 °F 100% 29.94 in 1.8 mi Calm Calm - N/A   Unknown
6:55 PM 21.2 °F 16.4 °F 21.2 °F 100% 29.94 in 1.8 mi WSW 3.5 mph - N/A   Unknown
7:15 PM 21.2 °F - 21.2 °F 100% 29.94 in 2.0 mi Calm Calm - N/A   Unknown
7:35 PM 21.2 °F - 21.2 °F 100% 29.94 in 2.5 mi Calm Calm - N/A   Unknown
7:55 PM 21.2 °F - 21.2 °F 100% 29.94 in 3.0 mi Calm Calm - N/A   Unknown
8:15 PM 21.2 °F - 21.2 °F 100% 29.94 in 3.0 mi Calm Calm - N/A   Unknown
8:35 PM 21.2 °F - 21.2 °F 100% 29.94 in 3.0 mi Calm Calm - N/A   Unknown
8:55 PM 21.2 °F - 21.2 °F 100% 29.93 in 3.0 mi Calm Calm - N/A   Unknown
9:15 PM 21.2 °F - 21.2 °F 100% 29.93 in 4.0 mi Calm Calm - N/A   Unknown
9:35 PM 21.2 °F - 21.2 °F 100% 29.93 in 10.0 mi Calm Calm - N/A   Unknown
9:55 PM 21.2 °F 16.4 °F 21.2 °F 100% 29.93 in 10.0 mi West 3.5 mph - N/A   Unknown
10:15 PM 21.2 °F 12.6 °F 21.2 °F 100% 29.93 in 10.0 mi West 6.9 mph - N/A   Unknown
10:35 PM 21.2 °F 13.6 °F 21.2 °F 100% 29.92 in 10.0 mi West 5.8 mph - N/A   Unknown
10:55 PM 21.2 °F 12.6 °F 21.2 °F 100% 29.92 in 10.0 mi West 6.9 mph - N/A   Unknown
11:15 PM 21.2 °F 12.6 °F 21.2 °F 100% 29.92 in 7.0 mi WSW 6.9 mph - N/A   Unknown
11:35 PM 21.2 °F 14.9 °F 21.2 °F 100% 29.92 in 10.0 mi WSW 4.6 mph - N/A   Unknown
11:55 PM 21.2 °F 14.9 °F 21.2 °F 100% 29.92 in 10.0 mi WSW 4.6 mph - N/A   Unknown